Regional Weather Roundup
Issued by NWS Green Bay, WI

Home | Current Version | Previous Version | Graphics & Text | Print | Product List | Glossary Off
Versions: 1 2 3 4 5 6 7 8 9 10 11 12 13 14 15 16 17 18 19 20 21 22 23 24 25 26 27 28 29 30 31 32 33 34 35 36 37 38 39 40 41 42 43 44 45 46 47 48 49 50

000
ASUS43 KGRB 251611
RWRGRB

NORTH-CENTRAL AND NORTHEAST WISCONSIN REGIONAL WEATHER ROUNDUP
NATIONAL WEATHER SERVICE GREEN BAY WI
1000 AM CST SUN FEB 25 2018

WIZ005-009-010>012-018-019-251700-
NORTH CENTRAL WISCONSIN

CITY           SKY/WX    TMP DP  RH WIND       PRES   REMARKS
IRONWOOD       LGT SNOW  23  18  81 W25G38    29.45R WCI   7
MANITOWISH WTR LGT SNOW  21  19  91 SW18G26   29.45R WCI   6
ARBOR VITAE    LGT SNOW  22  18  86 W14G23    29.48R WCI   9
EAGLE RIVER    LGT SNOW  20  16  81 W22G32    29.45R WCI   4
LAND O LAKES   LGT SNOW  23  19  84 W10G25    29.44R
RHINELANDER    LGT SNOW  20  16  84 W23G33    29.50R VSB 1   WCI   3
PHILLIPS       CLOUDY    19  17  90 W16G22    29.52R WCI   4
ANTIGO         CLOUDY    19  16  86 W23G35    29.56R FOG     WCI   2
TOMAHAWK       LGT SNOW  19  14  84 SW10G22   29.55R WCI   7
MERRILL        LGT SNOW  20  16  84 W14G25    29.59R WCI   6
$$

WIZ013-073-251700-
NORTHEAST WISCONSIN

CITY           SKY/WX    TMP DP  RH WIND       PRES   REMARKS
IRON MOUNTAIN  MIX PCPN  25  18  74 W16G33    29.45R
MARINETTE      CLOUDY    29  21  72 W17G29    29.56R
OCONTO         CLOUDY    27  19  73 W23G32    29.61R
$$

WIZ017-030-035>037-045-251700-
CENTRAL WISCONSIN

CITY           SKY/WX    TMP DP  RH WIND       PRES   REMARKS
MEDFORD        CLOUDY    19  16  87 W15G22    29.58R WCI   5
WAUSAU         CLOUDY    21  17  84 W16       29.60R WCI   7
MOSINEE        CLOUDY    21  19  93 W22G29    29.63R WCI   5
MARSHFIELD     CLOUDY    21  18  88 W16G28    29.62R WCI   7
WISC RAPIDS    CLOUDY    23  17  78 MISG      29.69R
STEVENS POINT  CLOUDY    20  18  91 W12G17    29.66R FOG     WCI   8
WAUPACA        CLOUDY    27  21  77 SW25G32   29.68R
SHAWANO        CLOUDY    27  21  76 SW13G25   29.62R
CLINTONVILLE   CLOUDY    25  19  77 W22G32    29.65R WCI  10
WAUTOMA        PTSUNNY   28  20  71 W17G24    29.71R
$$

WIZ038-039-048-051-251700-
FOX VALLEY

CITY           SKY/WX    TMP DP  RH WIND       PRES   REMARKS
NWS GREEN BAY  PTSUNNY   28  19  69 SW16G31   29.64R
APPLETON       PTSUNNY   27  18  69 W23G32    29.65R
OSHKOSH        PTSUNNY   28  20  71 W13G24    29.69R
FOND DU LAC    FAIR      29  18  63 W15G32    29.71R
$$

WIZ022-050-052-251700-
EAST CENTRAL WISCONSIN

CITY           SKY/WX    TMP DP  RH WIND       PRES   REMARKS
EPHRAIM        CLOUDY    27  21  79 W13G23    29.53R
WASHINGTON ISL CLOUDY    27  22  80 W21G35    29.52R
STURGEON BAY   CLOUDY    28  20  71 SW31G39   29.56R
MANITOWOC      FAIR      30  20  66 W26G37    29.64R
SHEBOYGAN      FAIR      31  22  69 W21G36    29.69R
$$

LMZ563-521-522-541>543-251700-
LAKESHORE

STATION/POSITION TIME  TEMP    WIND        PRES    VSBY  WAVE
                       AIR SEA DIR/SP/G                  HT/PER
                 (UTC) (F)     (DEG/KT/KT) (MB)    (MI)  (FT/S)
SHEBOYGAN LKSHOR 1600   31     250/ 27/ 31 1006.0R
KEWAUNEE LKSHORE 1548   29     260/ 16/ 24 1002.0R
NORTHPORT PIER   1541   28                  999.3R
MENOMINEE LKSHOR 1548   27     290/ 23/ 35 1000.8R
$$




USA.gov is the U.S. government's official web portal to all federal, state and local government web resources and services.